Location: *
(49.6619°S, 177.4603°W)
Time: 05:29:07
(UTC+00:00)

H-2A R/B - Pass Details

Date: 31 January 2023
Orbit: 523 x 638 km, 98.3° (Epoch: 01 April)

Event Time Altitude Azimuth Distance (km) Brightness Sun altitude
Rises 10:17:23 0° 171° (S) 2,963 6.9 -19.0°
Reaches altitude 10° 10:19:42 10° 177° (S) 2,032 6.1 -19.1°
Maximum altitude 10:23:55 45° 248° (WSW) 852 3.5 -19.4°
Enters shadow 10:27:04 16° 316° (NW) 1,606 4.5 -19.7°
